Regional Weather Roundup
Issued by NWS Green Bay, WI

Home | Current Version | Previous Version | Graphics & Text | Print | Product List | Glossary Off
Versions: 1 2 3 4 5 6 7 8 9 10 11 12 13 14 15 16 17 18 19 20 21 22 23 24 25 26 27 28 29 30 31 32 33 34 35 36 37 38 39 40 41 42 43 44 45 46 47 48 49 50

000
ASUS43 KGRB 250511
RWRGRB

NORTH-CENTRAL AND NORTHEAST WISCONSIN REGIONAL WEATHER ROUNDUP
NATIONAL WEATHER SERVICE GREEN BAY WI
1200 AM CDT TUE JUL 25 2017

WIZ005-009-010>012-018-019-250600-
NORTH CENTRAL WISCONSIN

CITY           SKY/WX    TMP DP  RH WIND       PRES   REMARKS
IRONWOOD       CLOUDY    60  55  83 CALM      30.09R
MANITOWISH WTR CLOUDY    56  56 100 CALM      30.11S
ARBOR VITAE    CLOUDY    62  56  82 S3        30.12R
EAGLE RIVER    CLOUDY    59  52  78 CALM      30.13R
LAND O LAKES   CLOUDY    53  52  99 CALM      30.14R
RHINELANDER    PTCLDY    61  55  81 S3        30.13S
PHILLIPS       PTCLDY    58  57  98 CALM      30.11S
ANTIGO         CLEAR     56  51  84 S5        30.14S
TOMAHAWK         N/A     57  54  87 CALM      30.13R
MERRILL        PTCLDY    61  55  79 S3        30.13R
$$

WIZ013-073-250600-
NORTHEAST WISCONSIN

CITY           SKY/WX    TMP DP  RH WIND       PRES   REMARKS
IRON MOUNTAIN  CLEAR     60  53  77 SE3       30.12R
MARINETTE      CLEAR     58  56  93 CALM      30.14R
OCONTO         PTCLDY    55  53  94 CALM      30.13R
$$

WIZ017-030-035>037-045-250600-
CENTRAL WISCONSIN

CITY           SKY/WX    TMP DP  RH WIND       PRES   REMARKS
MEDFORD        MOCLDY    60  55  85 CALM      30.12R
WAUSAU         MOCLDY    61  52  72 E3        30.11S
MOSINEE        PTCLDY    57  52  82 E3        30.14R
MARSHFIELD     PTCLDY    61  54  77 CALM      30.12R
WISC RAPIDS    PTCLDY    62  56  80 SE6       30.13R
STEVENS POINT  PTCLDY    57  52  84 CALM      30.13S
WAUPACA        PTCLDY    60  57  91 CALM      30.13S
SHAWANO        CLEAR     62  55  77 CALM      30.13R
CLINTONVILLE   CLEAR    N/A N/A N/A CALM      30.13R
WAUTOMA        NOT AVBL
$$

WIZ038-039-048-051-250600-
FOX VALLEY

CITY           SKY/WX    TMP DP  RH WIND       PRES   REMARKS
NWS GREEN BAY  CLEAR     57  57 100 CALM      30.13S
APPLETON       CLEAR     63  41  45 CALM      30.12S
OSHKOSH        CLEAR     61  52  72 S5        30.13R
FOND DU LAC    CLEAR     56  50  80 S5        30.14R
$$

WIZ022-050-052-250600-
EAST CENTRAL WISCONSIN

CITY           SKY/WX    TMP DP  RH WIND       PRES   REMARKS
EPHRAIM        FAIR      61  48  64 CALM      30.13R
WASHINGTON ISL MOCLDY    51  51  99 CALM      30.12F
STURGEON BAY     N/A     57  53  86 CALM      30.15R
MANITOWOC      CLEAR     57  50  77 CALM      30.14R
SHEBOYGAN      CLEAR     53  53 100 W3        30.14R
$$

LMZ563-521-522-541>543-250600-
LAKESHORE

STATION/POSITION TIME  TEMP    WIND        PRES    VSBY  WAVE
                       AIR SEA DIR/SP/G                  HT/PER
                 (UTC) (F)     (DEG/KT/KT) (MB)    (MI)  (FT/S)
SHEBOYGAN LKSHOR 0500   66      40/  4/  5 1020.1R
KEWAUNEE LKSHORE 0448   58     290/  5/  5 1019.4R
NORTHPORT PIER   0440   60     200/  3/  4 1020.0S
N MID LAKE BUOY  0450   66 66  290/  4/  4 1021.0R         0
S GREEN BAY BUOY 0500   69 72  150/  6/  8 1020.1
SISTER BAY LKSHO 0502   61        CALM       N/A
CHAMBERS ISLAND  0440   58     160/  3/  4 1019.3S
MENOMINEE LKSHOR 0448   67     190/  2/  3 1019.9R
$$




USA.gov is the U.S. government's official web portal to all federal, state and local government web resources and services.